Satellite-Ground Cal/Val Site Overpasses Predictions

Prediction of Satellite NPP Overpassing Cal/Val Site: Antarctic Dome C

Ground Cal/Val Site Location: Latitude: -75.10, Longitude: 123.35; Satellite-Ground Site NADIR distance within 100 km.

Table of predicted overpasses for the next 14.0 days since TLE Epoch: 7/6/2024
Interval Starting Time Ending Time Minimum Distance Time Minimum Distance (km)
1 07/06/2024 14:48:37 07/06/2024 14:49:06 07/06/2024 14:48:52 15.48
2 07/08/2024 07:31:29 07/08/2024 07:31:58 07/08/2024 07:31:43 3.36
3 07/11/2024 14:55:01 07/11/2024 14:55:30 07/11/2024 14:55:15 21.94
4 07/12/2024 14:36:19 07/12/2024 14:36:34 07/12/2024 14:36:27 85.05
5 07/13/2024 07:37:53 07/13/2024 07:38:20 07/13/2024 07:38:07 38.05
6 07/14/2024 07:19:08 07/14/2024 07:19:28 07/14/2024 07:19:18 71.74
7 07/16/2024 15:01:26 07/16/2024 15:01:49 07/16/2024 15:01:38 59.75
8 07/17/2024 14:42:37 07/17/2024 14:43:02 07/17/2024 14:42:50 49.49
9 07/18/2024 07:44:19 07/18/2024 07:44:38 07/18/2024 07:44:29 73.96
